| time (UTC) | temp F | wind direction | speed knots | gust knots | rain 1hr in | rain 24hr in | rain mn in | humidity % | barometer mb |
| 20260508141503 | 75 | 295 | 4.3 | 11.3 | 0.00 | 0.00 | 0.00 | 62 | 1017.1 |
| 20260508140002 | 76 | 360 | 5.2 | 11.3 | 0.00 | 0.00 | 0.00 | 62 | 1017.1 |
| 20260508134505 | 76 | 328 | 3.5 | 13.0 | 0.00 | 0.00 | 0.00 | 63 | 1017.1 |
| 20260508133112 | 76 | 333 | 2.6 | 13.0 | 0.00 | 0.00 | 0.00 | 62 | 1017.0 |
| 20260508131602 | 77 | 331 | 3.5 | 13.0 | 0.00 | 0.00 | 0.00 | 62 | 1017.1 |
| 20260508130111 | 77 | 329 | 5.2 | 10.4 | 0.00 | 0.00 | 0.00 | 62 | 1017.2 |
| 20260508124556 | 77 | 30 | 3.5 | 11.3 | 0.00 | 0.00 | 0.00 | 60 | 1017.4 |
| 20260508123103 | 78 | 323 | 1.7 | 13.9 | 0.00 | 0.00 | 0.00 | 61 | 1017.6 |
| 20260508121603 | 78 | 284 | 5.2 | 13.0 | 0.00 | 0.00 | 0.00 | 60 | 1017.7 |
| 20260508120057 | 78 | 306 | 3.5 | 12.2 | 0.00 | 0.00 | 0.00 | 60 | 1017.8 |
| 20260508114652 | 78 | 222 | 4.3 | 13.9 | 0.00 | 0.00 | 0.00 | 58 | 1017.9 |
| 20260508113051 | 77 | 330 | 4.3 | 12.2 | 0.00 | 0.00 | 0.00 | 59 | 1018.2 |
| 20260508111550 | 77 | 307 | 6.1 | 12.2 | 0.00 | 0.00 | 0.00 | 58 | 1018.4 |
| 20260508110052 | 79 | 350 | 4.3 | 12.2 | 0.00 | 0.00 | 0.00 | 57 | 1018.5 |
| 20260508104616 | 78 | 218 | 4.3 | 13.0 | 0.00 | 0.00 | 0.00 | 58 | 1018.6 |
| 20260508103048 | 78 | 351 | 6.1 | 13.0 | 0.00 | 0.00 | 0.00 | 57 | 1018.6 |
| 20260508101550 | 78 | 300 | 4.3 | 13.0 | 0.00 | 0.00 | 0.00 | 57 | 1018.6 |
| 20260508100047 | 78 | 355 | 3.5 | 11.3 | 0.00 | 0.00 | 0.00 | 58 | 1018.6 |
| 20260508094547 | 77 | 298 | 7.0 | 12.2 | 0.00 | 0.00 | 0.00 | 58 | 1018.8 |
| 20260508093044 | 78 | 290 | 2.6 | 12.2 | 0.00 | 0.00 | 0.00 | 58 | 1019.0 |
| 20260508091541 | 77 | 304 | 4.3 | 11.3 | 0.00 | 0.00 | 0.00 | 59 | 1019.2 |
| 20260508090050 | 77 | 315 | 5.2 | 16.5 | 0.00 | 0.00 | 0.00 | 59 | 1019.3 |
| 20260508084537 | 77 | 306 | 5.2 | 13.9 | 0.00 | 0.00 | 0.00 | 59 | 1019.4 |
| 20260508083044 | 77 | 311 | 3.5 | 11.3 | 0.00 | 0.00 | 0.00 | 59 | 1019.6 |
| 20260508081540 | 76 | 302 | 6.1 | 11.3 | 0.00 | 0.00 | 0.00 | 58 | 1019.9 |
| 20260508080030 | 77 | 302 | 1.7 | 12.2 | 0.00 | 0.00 | 0.00 | 59 | 1019.8 |
| 20260508074527 | 76 | 317 | 4.3 | 13.0 | 0.00 | 0.00 | 0.00 | 59 | 1019.8 |
| 20260508073024 | 76 | 335 | 5.2 | 13.0 | 0.00 | 0.00 | 0.00 | 58 | 1019.6 |
| 20260508071522 | 76 | 313 | 2.6 | 8.7 | 0.00 | 0.00 | 0.00 | 59 | 1019.6 |
| 20260508070022 | 77 | 360 | 1.7 | 10.4 | 0.00 | 0.00 | 0.00 | 58 | 1019.6 |
| 20260508064514 | 75 | 304 | 2.6 | 10.4 | 0.00 | 0.00 | 0.00 | 57 | 1019.8 |
| 20260508063009 | 75 | 286 | 4.3 | 9.6 | 0.00 | 0.00 | 0.00 | 57 | 1019.7 |
| 20260508061508 | 75 | 327 | 1.7 | 8.7 | 0.00 | 0.00 | 0.00 | 59 | 1019.9 |
| 20260508060005 | 74 | 316 | 1.7 | 5.2 | 0.00 | 0.00 | 0.00 | 59 | 1019.9 |
| 20260508054559 | 73 | 360 | 2.6 | 6.1 | 0.00 | 0.00 | 0.00 | 60 | 1020.0 |
| 20260508053104 | 73 | 360 | 1.7 | 4.3 | 0.00 | 0.00 | 0.00 | 62 | 1020.0 |
| 20260508051552 | 71 | 306 | 2.6 | 7.8 | 0.00 | 0.00 | 0.00 | 64 | 1019.8 |
| 20260508050046 | 70 | 321 | 4.3 | 10.4 | 0.00 | 0.00 | 0.00 | 65 | 1019.8 |
| 20260508044542 | 69 | 360 | 5.2 | 9.6 | 0.00 | 0.00 | 0.00 | 66 | 1019.6 |
| 20260508043055 | 68 | 360 | 5.2 | 8.7 | 0.00 | 0.00 | 0.00 | 67 | 1019.8 |
| 20260508041535 | 67 | 360 | 4.3 | 8.7 | 0.00 | 0.00 | 0.00 | 69 | 1019.5 |
| 20260508040031 | 66 | 348 | 3.5 | 7.8 | 0.00 | 0.00 | 0.00 | 71 | 1019.3 |
| 20260508034525 | 64 | 360 | 2.6 | 7.0 | 0.00 | 0.00 | 0.00 | 72 | 1018.9 |
| 20260508033020 | 63 | 360 | 2.6 | 5.2 | 0.00 | 0.00 | 0.00 | 72 | 1018.9 |
| 20260508031521 | 62 | 360 | 2.6 | 5.2 | 0.00 | 0.00 | 0.00 | 73 | 1018.6 |
| 20260508030114 | 62 | 360 | 0.9 | 3.5 | 0.00 | 0.00 | 0.00 | 74 | 1018.5 |
| 20260508024512 | 62 | 360 | 1.7 | 2.6 | 0.00 | 0.00 | 0.00 | 74 | 1018.5 |
| 20260508023016 | 62 | 360 | 1.7 | 3.5 | 0.00 | 0.00 | 0.00 | 74 | 1018.4 |
| 20260508021510 | 62 | 360 | 1.7 | 3.5 | 0.00 | 0.00 | 0.00 | 74 | 1018.1 |
| 20260508020012 | 62 | 360 | 2.6 | 3.5 | 0.00 | 0.00 | 0.00 | 73 | 1018.0 |
| 20260508014512 | 63 | 351 | 2.6 | 4.3 | 0.00 | 0.00 | 0.00 | 74 | 1018.1 |
| 20260508013005 | 63 | 360 | 1.7 | 4.3 | 0.00 | 0.00 | 0.00 | 74 | 1018.3 |
| 20260508011506 | 63 | 360 | 1.7 | 3.5 | 0.00 | 0.00 | 0.00 | 73 | 1018.3 |
| 20260508010004 | 63 | 360 | 1.7 | 3.5 | 0.00 | 0.00 | 0.00 | 73 | 1018.4 |
| 20260508004606 | 63 | 325 | 2.6 | 5.2 | 0.00 | 0.00 | 0.00 | 73 | 1018.6 |
| 20260508003101 | 63 | 360 | 2.6 | 5.2 | 0.00 | 0.00 | 0.00 | 73 | 1018.6 |
| 20260508001558 | 64 | 360 | 2.6 | 5.2 | 0.00 | 0.00 | 0.00 | 73 | 1018.7 |
| 20260508000057 | 64 | 360 | 1.7 | 3.5 | 0.00 | 0.00 | 0.00 | 73 | 1018.9 |
| 20260507234556 | 64 | 360 | 0.9 | 4.3 | 0.00 | 0.00 | 0.00 | 73 | 1018.9 |
| 20260507233056 | 64 | 360 | 0.9 | 3.5 | 0.00 | 0.00 | 0.00 | 72 | 1019.2 |
| 20260507231554 | 64 | 311 | 0.9 | 4.3 | 0.00 | 0.00 | 0.00 | 72 | 1019.1 |
| 20260507230059 | 64 | 315 | 0.9 | 3.5 | 0.00 | 0.00 | 0.00 | 71 | 1019.2 |
| 20260507224552 | 64 | 360 | 0.0 | 2.6 | 0.00 | 0.00 | 0.00 | 70 | 1019.2 |
| 20260507223049 | 65 | 318 | 0.9 | 3.5 | 0.00 | 0.00 | 0.00 | 70 | 1019.5 |
| 20260507221546 | 65 | 360 | 1.7 | 3.5 | 0.00 | 0.00 | 0.00 | 69 | 1019.4 |
| 20260507220042 | 66 | 319 | 1.7 | 5.2 | 0.00 | 0.00 | 0.00 | 69 | 1019.4 |
| 20260507214541 | 66 | 360 | 2.6 | 7.8 | 0.00 | 0.00 | 0.00 | 70 | 1019.3 |
| 20260507213041 | 66 | 317 | 1.7 | 7.0 | 0.00 | 0.00 | 0.00 | 69 | 1019.3 |
| 20260507211534 | 66 | 360 | 2.6 | 7.8 | 0.00 | 0.00 | 0.00 | 69 | 1019.3 |
| 20260507210012 | 65 | 360 | 1.7 | 7.0 | 0.00 | 0.00 | 0.00 | 70 | 1019.1 |
| 20260507204512 | 65 | 360 | 1.7 | 5.2 | 0.00 | 0.00 | 0.00 | 69 | 1019.0 |
| 20260507203011 | 65 | 360 | 2.6 | 7.0 | 0.00 | 0.00 | 0.00 | 70 | 1018.9 |
| 20260507201513 | 65 | 360 | 2.6 | 5.2 | 0.00 | 0.00 | 0.00 | 69 | 1018.8 |
| 20260507200008 | 65 | 360 | 2.6 | 5.2 | 0.00 | 0.00 | 0.00 | 69 | 1018.9 |
| 20260507194507 | 65 | 360 | 1.7 | 5.2 | 0.00 | 0.00 | 0.00 | 69 | 1018.9 |
| 20260507193006 | 65 | 321 | 2.6 | 5.2 | 0.00 | 0.00 | 0.00 | 69 | 1019.0 |
| 20260507191506 | 66 | 296 | 2.6 | 4.3 | 0.00 | 0.00 | 0.00 | 68 | 1019.1 |
| 20260507190006 | 66 | 360 | 2.6 | 5.2 | 0.00 | 0.00 | 0.00 | 68 | 1019.0 |
| 20260507184501 | 66 | 360 | 4.3 | 9.6 | 0.00 | 0.00 | 0.00 | 67 | 1019.1 |
| 20260507183105 | 66 | 315 | 2.6 | 7.0 | 0.00 | 0.00 | 0.00 | 67 | 1019.1 |
| 20260507181559 | 67 | 360 | 2.6 | 7.0 | 0.00 | 0.00 | 0.00 | 67 | 1019.2 |
| 20260507180056 | 67 | 319 | 2.6 | 5.2 | 0.00 | 0.00 | 0.00 | 66 | 1019.0 |
| 20260507174555 | 67 | 360 | 1.7 | 7.0 | 0.00 | 0.00 | 0.00 | 66 | 1018.8 |
| 20260507173057 | 67 | 360 | 3.5 | 7.0 | 0.00 | 0.00 | 0.00 | 66 | 1018.8 |
| 20260507171554 | 67 | 360 | 2.6 | 7.0 | 0.00 | 0.00 | 0.00 | 65 | 1018.7 |
| 20260507170055 | 67 | 360 | 2.6 | 5.2 | 0.00 | 0.00 | 0.00 | 64 | 1018.6 |
| 20260507164605 | 68 | 327 | 2.6 | 7.8 | 0.00 | 0.00 | 0.00 | 63 | 1018.6 |
| 20260507163049 | 68 | 338 | 3.5 | 8.7 | 0.00 | 0.00 | 0.00 | 61 | 1018.6 |
| 20260507161549 | 69 | 351 | 6.1 | 12.2 | 0.00 | 0.00 | 0.00 | 60 | 1018.5 |
| 20260507160048 | 69 | 329 | 6.1 | 13.0 | 0.00 | 0.00 | 0.00 | 59 | 1018.4 |
| 20260507154544 | 70 | 309 | 2.6 | 10.4 | 0.00 | 0.00 | 0.00 | 60 | 1018.4 |
| 20260507153045 | 70 | 313 | 5.2 | 10.4 | 0.00 | 0.00 | 0.00 | 59 | 1018.4 |
| 20260507151543 | 70 | 330 | 4.3 | 12.2 | 0.00 | 0.00 | 0.00 | 59 | 1018.6 |
| 20260507150034 | 70 | 350 | 5.2 | 12.2 | 0.00 | 0.00 | 0.00 | 59 | 1018.7 |
| 20260507144532 | 71 | 360 | 6.1 | 12.2 | 0.00 | 0.00 | 0.00 | 58 | 1018.4 |
| 20260507143053 | 71 | 315 | 4.3 | 11.3 | 0.00 | 0.00 | 0.00 | 58 | 1018.4 |